Tracking 35275 objects as of 9-Sep-2026
HD Live streaming from Space Station
objects crossing your sky now

STARLINK-1759


STARLINK-1759 is no longer on orbit
STARLINK-1759 is classified as:


NORAD ID: 46340
Int'l Code: 2020-062R
Launch date: September 3, 2020
Source: United States (US)
Launch site: AIR FORCE EASTERN TEST RANGE (AFETR)
Decay date: 2026-07-20
Your satellite tracking list
Your tracking list is empty




NASA's NSSDC Master Catalog

Two Line Element Set (TLE):
1 46340U 20062R   26200.75716244  .09062225  12442-4  58500-3 0  9997
2 46340  52.9962  28.0761 0011414 287.6003  72.3796 16.40705649325818
Source of the keplerian elements: AFSPC